Weather History for Philadelphia Wings Airport, PA

Change the Weather History Date:

Thursday, January 3, 2013

  Actual Average (KPNE) Record (KPNE)
Temperature  
Mean Temperature 28 °F -  
Max Temperature 33 °F 40 °F 64 °F (1997)
Min Temperature 24 °F 27 °F 8 °F (2014)
Degree Days  
Heating Degree Days 36    
Moisture  
Dew Point 19 °F    
Average Humidity 64    
Maximum Humidity 75    
Minimum Humidity 48    
Precipitation  
Precipitation 0.00 in - - ()
Sea Level Pressure  
Sea Level Pressure 30.15 in    
Wind  
Wind Speed 3 mph (West)    
Max Wind Speed 9 mph    
Max Gust Speed 17 mph    
Visibility 10 miles    
Events      
Averages and records for this station are not official NWS values.
T = Trace of Precipitation, MM = Missing Value Source: NWS Daily Summary

Daily Weather History Graph

Daily Weather History Graph

Search for Another Location

Airport:

Trip Planner

Search our weather history database for the weather conditions in past years. The results will help you decide how hot, cold, wet, or windy it might be!

Date:

Astronomy

Jan. 03, 2013 Rise Set
Actual Time 7:23 AM EST 4:48 PM EST
Civil Twilight 6:53 AM EST 5:18 PM EST
Nautical Twilight 6:19 AM EST 5:52 PM EST
Astronomical Twilight 5:46 AM EST 6:25 PM EST
Moon 11:21 PM EST (1/3) 10:33 AM EST (1/3)
Length of Visible Light 10h 25m
Length of Day
9h 24m
Waning Gibbous, 65% of the Moon is Illuminated
Jan 3
Waning Gibbous
Jan 4
Last Quarter
Jan 11
New
Jan 18
First Quarter
Jan 26
Full

Hourly Weather History & Observations

Time (EST) Temp. Windchill Dew Point Humidity Pressure Visibility Wind Dir Wind Speed Gust Speed Precip Events Conditions
12:15 AM 28.4 °F 24.6 °F 19.4 °F 69% 30.20 in 10.0 mi West 3.5 mph - N/A   Clear
12:35 AM 28.4 °F - 17.6 °F 64% 30.20 in 10.0 mi Calm Calm - N/A   Clear
12:55 AM 28.4 °F 24.6 °F 17.6 °F 64% 30.20 in 10.0 mi WNW 3.5 mph - N/A   Clear
1:15 AM 28.4 °F - 19.4 °F 69% 30.20 in 10.0 mi Calm Calm - N/A   Clear
1:35 AM 28.4 °F 24.6 °F 17.6 °F 64% 30.19 in 10.0 mi NW 3.5 mph - N/A   Clear
1:55 AM 28.4 °F 24.6 °F 19.4 °F 69% 30.20 in 10.0 mi West 3.5 mph - N/A   Clear
2:15 AM 28.4 °F - 19.4 °F 69% 30.20 in 10.0 mi Calm Calm - N/A   Clear
2:35 AM 28.4 °F 24.6 °F 19.4 °F 69% 30.20 in 10.0 mi West 3.5 mph - N/A   Clear
2:55 AM 28.4 °F - 19.4 °F 69% 30.20 in 10.0 mi Calm Calm - N/A   Clear
3:15 AM 28.4 °F 24.6 °F 19.4 °F 69% 30.19 in 10.0 mi WNW 3.5 mph - N/A   Clear
3:35 AM 28.4 °F 24.6 °F 19.4 °F 69% 30.19 in 10.0 mi WNW 3.5 mph - N/A   Clear
3:55 AM 28.4 °F 24.6 °F 19.4 °F 69% 30.19 in 10.0 mi West 3.5 mph - N/A   Clear
4:15 AM 26.6 °F 22.6 °F 19.4 °F 74% 30.18 in 10.0 mi West 3.5 mph - N/A   Clear
4:35 AM 26.6 °F - 19.4 °F 74% 30.19 in 10.0 mi Calm Calm - N/A   Clear
4:55 AM 26.6 °F 22.6 °F 19.4 °F 74% 30.18 in 10.0 mi West 3.5 mph - N/A   Clear
5:15 AM 26.6 °F 22.6 °F 19.4 °F 74% 30.18 in 10.0 mi West 3.5 mph - N/A   Clear
5:35 AM 26.6 °F 22.6 °F 19.4 °F 74% 30.18 in 10.0 mi West 3.5 mph - N/A   Clear
5:55 AM 26.6 °F - 19.4 °F 74% 30.18 in 10.0 mi Calm Calm - N/A   Clear
6:15 AM 26.6 °F - 19.4 °F 74% 30.18 in 10.0 mi Calm Calm - N/A   Clear
6:35 AM 26.6 °F 22.6 °F 17.6 °F 69% 30.18 in 10.0 mi WNW 3.5 mph - N/A   Clear
6:55 AM 26.6 °F 22.6 °F 17.6 °F 69% 30.19 in 10.0 mi West 3.5 mph - N/A   Clear
7:15 AM 24.8 °F - 17.6 °F 74% 30.19 in 10.0 mi Calm Calm - N/A   Clear
7:35 AM 24.8 °F 20.5 °F 17.6 °F 74% 30.19 in 10.0 mi West 3.5 mph - N/A   Clear
7:55 AM 26.6 °F 22.6 °F 19.4 °F 74% 30.19 in 10.0 mi West 3.5 mph - N/A   Clear
8:15 AM 26.6 °F 22.6 °F 19.4 °F 74% 30.19 in 10.0 mi West 3.5 mph - N/A   Clear
8:35 AM 28.4 °F 23.3 °F 19.4 °F 69% 30.19 in 10.0 mi West 4.6 mph - N/A   Clear
8:55 AM 28.4 °F 24.6 °F 19.4 °F 69% 30.20 in 10.0 mi WNW 3.5 mph - N/A   Clear
9:15 AM 30.2 °F 24.3 °F 19.4 °F 64% 30.20 in 10.0 mi West 5.8 mph - N/A   Clear
9:35 AM 30.2 °F 23.4 °F 17.6 °F 60% 30.21 in 10.0 mi West 6.9 mph - N/A   Clear
9:55 AM 30.2 °F 25.4 °F 17.6 °F 60% 30.21 in 10.0 mi WNW 4.6 mph - N/A   Clear
10:15 AM 32.0 °F 27.5 °F 19.4 °F 60% 30.20 in 10.0 mi West 4.6 mph - N/A   Clear
10:35 AM 32.0 °F 28.7 °F 19.4 °F 60% 30.19 in 10.0 mi West 3.5 mph - N/A   Clear
10:55 AM 32.0 °F 25.6 °F 19.4 °F 60% 30.18 in 10.0 mi West 6.9 mph - N/A   Clear
11:15 AM 32.0 °F 26.4 °F 17.6 °F 55% 30.18 in 10.0 mi WSW 5.8 mph - N/A   Clear
11:35 AM 32.0 °F 24.8 °F 17.6 °F 55% 30.16 in 10.0 mi West 8.1 mph - N/A   Clear
11:55 AM 32.0 °F 28.7 °F 17.6 °F 55% 30.15 in 10.0 mi West 3.5 mph - N/A   Clear
12:15 PM 32.0 °F 25.6 °F 17.6 °F 55% 30.14 in 10.0 mi West 6.9 mph - N/A   Clear
12:35 PM 32.0 °F 26.4 °F 17.6 °F 55% 30.13 in 10.0 mi West 5.8 mph - N/A   Clear
12:55 PM 32.0 °F 25.6 °F 15.8 °F 51% 30.12 in 10.0 mi NW 6.9 mph - N/A   Clear
1:15 PM 33.8 °F 26.4 °F 15.8 °F 48% 30.11 in 10.0 mi WNW 9.2 mph - N/A   Clear
1:35 PM 33.8 °F 26.4 °F 15.8 °F 48% 30.11 in 10.0 mi WNW 9.2 mph - N/A   Clear
1:55 PM 33.8 °F 26.4 °F 15.8 °F 48% 30.10 in 10.0 mi West 9.2 mph - N/A   Clear
2:15 PM 33.8 °F 27.7 °F 15.8 °F 48% 30.10 in 10.0 mi WNW 6.9 mph 17.3 mph N/A   Clear
2:35 PM 33.8 °F 29.6 °F 15.8 °F 48% 30.10 in 10.0 mi West 4.6 mph - N/A   Clear
2:55 PM 33.8 °F 27.0 °F 17.6 °F 52% 30.09 in 10.0 mi WSW 8.1 mph - N/A   Clear
3:15 PM 33.8 °F 28.6 °F 15.8 °F 48% 30.09 in 10.0 mi West 5.8 mph - N/A   Clear
3:35 PM 33.8 °F 27.7 °F 17.6 °F 52% 30.09 in 10.0 mi West 6.9 mph - N/A   Clear
3:55 PM 33.8 °F 26.4 °F 17.6 °F 52% 30.10 in 10.0 mi WSW 9.2 mph - N/A   Clear
4:15 PM 33.8 °F 28.6 °F 17.6 °F 52% 30.10 in 10.0 mi West 5.8 mph - N/A   Clear
4:35 PM 32.0 °F 24.8 °F 19.4 °F 60% 30.11 in 10.0 mi WSW 8.1 mph - N/A   Clear
4:55 PM 32.0 °F 26.4 °F 19.4 °F 60% 30.11 in 10.0 mi WSW 5.8 mph - N/A   Clear
5:15 PM 32.0 °F 26.4 °F 19.4 °F 60% 30.11 in 10.0 mi WSW 5.8 mph - N/A   Clear
5:35 PM 32.0 °F 26.4 °F 19.4 °F 60% 30.11 in 10.0 mi WSW 5.8 mph - N/A   Clear
5:55 PM 32.0 °F 26.4 °F 19.4 °F 60% 30.11 in 10.0 mi WSW 5.8 mph - N/A   Clear
6:15 PM 32.0 °F 27.5 °F 21.2 °F 64% 30.11 in 10.0 mi WSW 4.6 mph - N/A   Clear
6:35 PM 32.0 °F 28.7 °F 21.2 °F 64% 30.12 in 10.0 mi WSW 3.5 mph - N/A   Clear
6:55 PM 32.0 °F 28.7 °F 21.2 °F 64% 30.12 in 10.0 mi WSW 3.5 mph - N/A   Clear
7:15 PM 32.0 °F - 21.2 °F 64% 30.12 in 10.0 mi Calm Calm - N/A   Clear
7:35 PM 32.0 °F - 21.2 °F 64% 30.12 in 10.0 mi Calm Calm - N/A   Clear
7:55 PM 30.2 °F 26.7 °F 21.2 °F 69% 30.12 in 10.0 mi WSW 3.5 mph - N/A   Clear
8:15 PM 32.0 °F 28.7 °F 21.2 °F 64% 30.11 in 10.0 mi WSW 3.5 mph - N/A   Clear
8:35 PM 32.0 °F 28.7 °F 21.2 °F 64% 30.11 in 10.0 mi WSW 3.5 mph - N/A   Clear
8:55 PM 30.2 °F - 21.2 °F 69% 30.11 in 10.0 mi Calm Calm - N/A   Clear
9:15 PM 30.2 °F - 21.2 °F 69% 30.10 in 10.0 mi Calm Calm - N/A   Clear
9:35 PM 28.4 °F 24.6 °F 21.2 °F 74% 30.11 in 10.0 mi West 3.5 mph - N/A   Clear
9:55 PM 30.2 °F - 21.2 °F 69% 30.11 in 10.0 mi Calm Calm - N/A   Clear
10:15 PM 28.4 °F - 21.2 °F 74% 30.11 in 10.0 mi Calm Calm - N/A   Clear
10:35 PM 30.2 °F - 21.2 °F 69% 30.11 in 10.0 mi Calm Calm - N/A   Scattered Clouds
10:55 PM 30.2 °F - 23.0 °F 75% 30.11 in 10.0 mi Calm Calm - N/A   Overcast
11:15 PM 32.0 °F - 23.0 °F 69% 30.11 in 10.0 mi Calm Calm - N/A   Overcast
11:35 PM 32.0 °F 28.7 °F 21.2 °F 64% 30.11 in 10.0 mi SW 3.5 mph - N/A   Overcast
11:55 PM 32.0 °F 28.7 °F 21.2 °F 64% 30.11 in 10.0 mi WSW 3.5 mph - N/A   Overcast